Tracking 30306 objects as of 22-Apr-2025
HD Live streaming from Space Station
objects crossing your sky now

THORAD DELTA 1 DEB

Track THORAD DELTA 1 DEB now!
10-day predictions


NORAD ID: 14879
Int'l Code: 1974-089ES
Perigee: 1,447.9 km
Apogee: 1,790.3 km
Inclination: 101.2 °
Period: 118.5 minutes
Semi major axis: 7990 km
RCS: 0.0345 m2 (small)
Launch date: November 15, 1974
Source: United States (US)
Launch site: AIR FORCE WESTERN TEST RANGE (AFWTR)

Note: This is SATELLITE DEBRIS
Your satellite tracking list
Your tracking list is empty




NASA's NSSDC Master Catalog

Two Line Element Set (TLE):
1 14879U 74089ES  25110.83997058  .00000137  00000-0  16540-2 0  9994
2 14879 101.2499  75.6632 0214267 136.1970 253.6717 12.15556408505968
Source of the keplerian elements: AFSPC